User: anonymous   Login
Location: Friaudour
(46.0460°N, 1.2873°E)
Time: 16:12:57
(UTC+00:00)
Language:

NPP - Orbit

View from above orbital plane
View from above orbital plane
View from above satellite
View from above satellite

Ground track
Ground track

The orbit data is extracted from the following two-line orbital elements,

1 37849U 11061A   20271.47387416  .00000018  00000-0  29264-4 0  9998
2 37849  98.7064 208.0400 0000988  58.5251  51.1941 14.19555136462094
Epoch (UTC): 27 September 2020 11:22:22
Eccentricity: 0.0000988
inclination: 98.7064°
perigee height: 826 km
apogee height: 827 km
right ascension of ascending node: 208.0400°
argument of perigee: 58.5251°
revolutions per day: 14.19555136
mean anomaly at epoch: 51.1941°
orbit number at epoch: 46209

The dashed part of the orbit path shows where the satellite is in the earth's shadow,  

DLR